Time,TemperatureF,DewpointF,PressureIn,WindDirection,WindDirectionDegrees,WindSpeedMPH,WindSpeedGustMPH,Humidity,HourlyPrecipIn,Conditions,Clouds,dailyrainin,SolarRadiationWatts/m^2,SoftwareType,DateUTC
2013-01-22 01:23:00,37.0,28.0,30.12,West,276,1.0,-999.0,70,0.00,,,-99.99,-3.000000,,2013-01-22 09:23:00,
2013-01-22 01:33:00,37.0,28.0,30.12,West,276,1.0,-999.0,70,0.00,,,-99.99,-3.000000,,2013-01-22 09:33:00,
2013-01-22 03:00:00,38.0,-99.9,30.11,West,262,1.0,-999.0,64,0.00,,,-99.99,-2.100000,,2013-01-22 11:00:00,
2013-01-22 03:23:00,38.0,27.0,30.11,West,262,1.0,-999.0,64,0.00,,,-99.99,-2.100000,,2013-01-22 11:23:00,
2013-01-22 03:33:00,38.0,27.0,30.11,West,262,1.0,-999.0,64,0.00,,,-99.99,-2.100000,,2013-01-22 11:33:00,
2013-01-22 03:43:00,38.0,27.0,30.11,West,262,1.0,-999.0,64,0.00,,,-99.99,-2.100000,,2013-01-22 11:43:00,
2013-01-22 03:53:00,38.0,27.0,30.11,West,262,1.0,-999.0,64,0.00,,,-99.99,-2.100000,,2013-01-22 11:53:00,
2013-01-22 04:23:00,34.0,27.0,30.09,NNE,14,1.0,-999.0,76,0.00,,,-99.99,-3.400000,,2013-01-22 12:23:00,
2013-01-22 04:33:00,34.0,27.0,30.09,NNE,14,1.0,-999.0,76,0.00,,,-99.99,-3.400000,,2013-01-22 12:33:00,
2013-01-22 05:23:00,32.0,26.0,30.10,North,6,2.0,-999.0,76,0.00,,,-99.99,-1.400000,,2013-01-22 13:23:00,
2013-01-22 05:33:00,32.0,26.0,30.10,North,6,2.0,-999.0,76,0.00,,,-99.99,-1.400000,,2013-01-22 13:33:00,
2013-01-22 06:23:00,37.0,24.0,30.08,North,1,2.0,-999.0,58,0.00,,,-99.99,-1.500000,,2013-01-22 14:23:00,
2013-01-22 06:34:00,37.0,24.0,30.08,North,1,2.0,-999.0,58,0.00,,,-99.99,-1.500000,,2013-01-22 14:34:00,
2013-01-22 06:44:00,37.0,24.0,30.08,North,1,2.0,-999.0,58,0.00,,,-99.99,-1.500000,,2013-01-22 14:44:00,
2013-01-22 06:53:00,37.0,24.0,30.08,North,1,2.0,-999.0,58,0.00,,,-99.99,-1.500000,,2013-01-22 14:53:00,
2013-01-22 08:24:00,34.0,24.0,30.10,NNE,22,4.0,-999.0,67,0.00,,,-99.99,9.600000,,2013-01-22 16:24:00,
2013-01-22 08:33:00,34.0,24.0,30.10,NNE,22,4.0,-999.0,67,0.00,,,-99.99,9.600000,,2013-01-22 16:33:00,
2013-01-22 09:00:00,44.0,22.0,30.12,NNE,13,4.0,-999.0,41,0.00,,,-99.99,89.800003,,2013-01-22 17:00:00,
2013-01-22 09:23:00,44.0,22.0,30.12,NNE,13,4.0,-999.0,41,0.00,,,-99.99,89.800003,,2013-01-22 17:23:00,
2013-01-22 09:34:00,44.0,22.0,30.12,NNE,13,4.0,-999.0,41,0.00,,,-99.99,89.800003,,2013-01-22 17:34:00,
2013-01-22 09:44:00,44.0,22.0,30.12,NNE,13,4.0,-999.0,41,0.00,,,-99.99,89.800003,,2013-01-22 17:44:00,
2013-01-22 09:53:00,44.0,22.0,30.12,NNE,13,4.0,-999.0,41,0.00,,,-99.99,89.800003,,2013-01-22 17:53:00,
2013-01-22 10:24:00,50.0,24.0,30.15,North,7,4.0,-999.0,37,0.00,,,-99.99,300.899994,,2013-01-22 18:24:00,
2013-01-22 10:34:00,50.0,24.0,30.15,North,7,4.0,-999.0,37,0.00,,,-99.99,300.899994,,2013-01-22 18:34:00,
2013-01-22 10:43:00,50.0,24.0,30.15,North,7,4.0,-999.0,37,0.00,,,-99.99,300.899994,,2013-01-22 18:43:00,
2013-01-22 10:53:00,50.0,24.0,30.15,North,7,4.0,-999.0,37,0.00,,,-99.99,300.899994,,2013-01-22 18:53:00,
2013-01-22 11:00:00,56.0,26.0,30.15,NNE,17,4.0,-999.0,31,0.00,,,-99.99,438.399994,,2013-01-22 19:00:00,
2013-01-22 11:24:00,56.0,26.0,30.15,NNE,17,4.0,-999.0,31,0.00,,,-99.99,438.399994,,2013-01-22 19:24:00,
2013-01-22 11:34:00,56.0,26.0,30.15,NNE,17,4.0,-999.0,31,0.00,,,-99.99,438.399994,,2013-01-22 19:34:00,
2013-01-22 11:43:00,56.0,26.0,30.15,NNE,17,4.0,-999.0,31,0.00,,,-99.99,438.399994,,2013-01-22 19:43:00,
2013-01-22 11:53:00,56.0,26.0,30.15,NNE,17,4.0,-999.0,31,0.00,,,-99.99,438.399994,,2013-01-22 19:53:00,
2013-01-22 13:00:00,66.0,29.0,30.09,SSW,211,2.0,-999.0,24,0.00,,,-99.99,544.099976,,2013-01-22 21:00:00,
2013-01-22 13:23:00,66.0,29.0,30.09,SSW,211,2.0,-999.0,24,0.00,,,-99.99,544.099976,,2013-01-22 21:23:00,
2013-01-22 13:34:00,66.0,29.0,30.09,SSW,211,2.0,-999.0,24,0.00,,,-99.99,544.099976,,2013-01-22 21:34:00,
2013-01-22 13:43:00,66.0,29.0,30.09,SSW,211,2.0,-999.0,24,0.00,,,-99.99,544.099976,,2013-01-22 21:43:00,
2013-01-22 13:53:00,66.0,29.0,30.09,SSW,211,2.0,-999.0,24,0.00,,,-99.99,544.099976,,2013-01-22 21:53:00,
2013-01-22 15:00:00,65.0,26.0,30.05,SW,220,2.0,-999.0,22,0.00,,,-99.99,215.500000,,2013-01-22 23:00:00,
2013-01-22 15:24:00,65.0,26.0,30.05,SW,220,2.0,-999.0,22,0.00,,,-99.99,215.500000,,2013-01-22 23:24:00,
2013-01-22 15:33:00,65.0,26.0,30.05,SW,220,2.0,-999.0,22,0.00,,,-99.99,215.500000,,2013-01-22 23:33:00,
2013-01-22 15:43:00,65.0,26.0,30.05,SW,220,2.0,-999.0,22,0.00,,,-99.99,215.500000,,2013-01-22 23:43:00,
2013-01-22 15:53:00,65.0,26.0,30.05,SW,220,2.0,-999.0,22,0.00,,,-99.99,215.500000,,2013-01-22 23:53:00,
2013-01-22 16:00:00,59.0,34.0,30.04,NNW,335,0.0,-999.0,39,0.00,,,-99.99,82.099998,,2013-01-23 00:00:00,
2013-01-22 16:23:00,59.0,34.0,30.04,NNW,335,0.0,-999.0,39,0.00,,,-99.99,82.099998,,2013-01-23 00:23:00,
2013-01-22 16:33:00,59.0,34.0,30.04,NNW,335,0.0,-999.0,39,0.00,,,-99.99,82.099998,,2013-01-23 00:33:00,
2013-01-22 16:43:00,59.0,34.0,30.04,NNW,335,0.0,-999.0,39,0.00,,,-99.99,82.099998,,2013-01-23 00:43:00,
2013-01-22 16:52:00,59.0,34.0,30.04,NNW,335,0.0,-999.0,39,0.00,,,-99.99,82.099998,,2013-01-23 00:52:00,
2013-01-22 17:23:00,52.0,37.0,30.04,ENE,73,1.0,-999.0,56,0.00,,,-99.99,43.900002,,2013-01-23 01:23:00,
2013-01-22 17:33:00,52.0,37.0,30.04,ENE,73,1.0,-999.0,56,0.00,,,-99.99,43.900002,,2013-01-23 01:33:00,
2013-01-22 18:23:00,45.0,34.0,30.03,NNE,15,0.0,-999.0,63,0.00,,,-99.99,-0.700000,,2013-01-23 02:23:00,
2013-01-22 18:33:00,45.0,34.0,30.03,NNE,15,0.0,-999.0,63,0.00,,,-99.99,-0.700000,,2013-01-23 02:33:00,
2013-01-22 19:23:00,43.0,34.0,30.05,North,7,1.0,-999.0,72,0.00,,,-99.99,-1.100000,,2013-01-23 03:23:00,
2013-01-22 19:33:00,43.0,34.0,30.05,North,7,1.0,-999.0,72,0.00,,,-99.99,-1.100000,,2013-01-23 03:33:00,
2013-01-22 20:00:00,48.0,36.0,30.06,NNE,14,3.0,-999.0,61,0.00,,,-99.99,-0.200000,,2013-01-23 04:00:00,
2013-01-22 20:23:00,48.0,36.0,30.06,NNE,14,3.0,-999.0,61,0.00,,,-99.99,-0.200000,,2013-01-23 04:23:00,
2013-01-22 20:33:00,48.0,36.0,30.06,NNE,14,3.0,-999.0,61,0.00,,,-99.99,-0.200000,,2013-01-23 04:33:00,
2013-01-22 20:43:00,48.0,36.0,30.06,NNE,14,3.0,-999.0,61,0.00,,,-99.99,-0.200000,,2013-01-23 04:43:00,
2013-01-22 20:53:00,48.0,36.0,30.06,NNE,14,3.0,-999.0,61,0.00,,,-99.99,-0.200000,,2013-01-23 04:53:00,
2013-01-22 21:00:00,48.0,35.0,30.06,North,349,6.0,-999.0,60,0.00,,,-99.99,-1.200000,,2013-01-23 05:00:00,
2013-01-22 21:23:00,48.0,35.0,30.06,North,349,6.0,-999.0,60,0.00,,,-99.99,-1.200000,,2013-01-23 05:23:00,
2013-01-22 21:33:00,48.0,35.0,30.06,North,349,6.0,-999.0,60,0.00,,,-99.99,-1.200000,,2013-01-23 05:33:00,
2013-01-22 21:43:00,48.0,35.0,30.06,North,349,6.0,-999.0,60,0.00,,,-99.99,-1.200000,,2013-01-23 05:43:00,
2013-01-22 21:53:00,48.0,35.0,30.06,North,349,6.0,-999.0,60,0.00,,,-99.99,-1.200000,,2013-01-23 05:53:00,
2013-01-22 22:23:00,44.0,34.0,30.07,NE,48,1.0,-999.0,68,0.00,,,-99.99,-2.300000,,2013-01-23 06:23:00,
2013-01-22 22:33:00,44.0,34.0,30.07,NE,48,1.0,-999.0,68,0.00,,,-99.99,-2.300000,,2013-01-23 06:33:00,
2013-01-22 22:43:00,44.0,34.0,30.07,NE,48,1.0,-999.0,68,0.00,,,-99.99,-2.300000,,2013-01-23 06:43:00,
2013-01-22 22:53:00,44.0,34.0,30.07,NE,48,1.0,-999.0,68,0.00,,,-99.99,-2.300000,,2013-01-23 06:53:00,
2013-01-22 23:00:00,46.0,32.0,30.07,NNW,346,4.0,-999.0,59,0.00,,,-99.99,-1.800000,,2013-01-23 07:00:00,
2013-01-22 23:23:00,46.0,32.0,30.07,NNW,346,4.0,-999.0,59,0.00,,,-99.99,-1.800000,,2013-01-23 07:23:00,
2013-01-22 23:33:00,46.0,32.0,30.07,NNW,346,4.0,-999.0,59,0.00,,,-99.99,-1.800000,,2013-01-23 07:33:00,
2013-01-22 23:43:00,46.0,32.0,30.07,NNW,346,4.0,-999.0,59,0.00,,,-99.99,-1.800000,,2013-01-23 07:43:00,
2013-01-22 23:53:00,46.0,32.0,30.07,NNW,346,4.0,-999.0,59,0.00,,,-99.99,-1.800000,,2013-01-23 07:53:00,